[[{"header":{"parameterUnit":"m.s-1","parameterCategory":1,"la1":30.2991,"la2":30.254,"lo1":-89.0895,"lo2":-89.0444,"dy":0.0017,"dx":0.0017,"nx":28,"ny":28,"refTime":"2024-06-15T09:00:00:Z","depth":0,"parameterNumber":2,"parameterNumberName":"U-component_of_WINDS"},"data":[0,0,0,0,0,0,0,0,0,0,0,0,0,0,0,0,0,0,0,0,0,0,0,0,0,0,0,0,0,0,0,0,0,0,0,0,0,0,0,0,0,0,0,0,0,0,0,0,0,0,0,0,0,0,0,0,0,0,-0.3443,-0.3443,0,-0.3446,-0.3446,-0.3446,-0.342,-0.342,-0.3419,-0.3418,-0.3423,-0.3423,-0.3424,0,0,0,0,0,0,0,0,0,0,0,0,0,-0.3415,-0.3416,-0.3443,-0.3443,-0.3443,-0.3446,-0.3446,-0.3446,-0.342,-0.342,-0.3419,-0.3418,-0.3422,-0.3423,-0.3424,0,0,0,0,0,0,0,0,0,0,0,0,0,-0.3424,-0.3416,-0.3443,-0.343,-0.3429,-0.3446,-0.3446,-0.3446,-0.3421,-0.342,-0.3418,-0.3417,-0.3422,-0.3423,-0.3424,-0.3453,0,0,-0.3428,-0.3428,0,0,0,0,0,0,0,0,-0.3423,-0.3425,-0.3432,-0.3431,-0.343,-0.3432,-0.3438,-0.3449,-0.3421,-0.3424,-0.3418,-0.3417,-0.3427,-0.3427,-0.343,-0.3454,-0.3454,-0.3428,-0.3429,-0.3429,-0.343,0,0,0,0,0,0,0,-0.3423,-0.3424,-0.3444,-0.3432,-0.3431,-0.3425,-0.3425,-0.344,-0.3431,-0.3424,-0.3422,-0.3422,-0.3426,-0.3429,-0.343,-0.3454,-0.3428,-0.3429,-0.343,-0.343,-0.3501,-0.3502,0,0,0,0,0,0,-0.3424,-0.3424,-0.3444,-0.3444,-0.3424,-0.3426,-0.3426,-0.3432,-0.3431,-0.343,-0.3423,-0.3421,-0.3428,-0.3429,-0.343,-0.3464,-0.3429,-0.343,-0.3431,-0.35,-0.3501,-0.3502,0,0,0,0,0,0,-0.3423,-0.3426,-0.3444,-0.3434,-0.3436,-0.3428,-0.3435,-0.3433,-0.3436,-0.3431,-0.3429,-0.3428,-0.3427,-0.3429,-0.3448,-0.3464,-0.3431,-0.3432,-0.3498,-0.35,-0.3502,-0.3532,0,0,0,0,0,0,-0.3422,-0.3426,-0.3436,-0.3434,-0.3436,-0.3461,-0.3436,-0.3434,-0.3438,-0.3436,-0.3435,-0.3434,-0.3426,-0.3446,-0.3449,-0.3465,-0.3433,-0.3497,-0.3499,-0.3501,-0.353,-0.3535,-0.3539,0,0,0,0,0,-0.3421,-0.3445,-0.3437,-0.344,-0.345,-0.3462,-0.3463,-0.3454,-0.344,-0.3451,-0.3447,-0.3434,-0.3462,-0.3448,-0.3451,-0.3468,-0.3496,-0.3499,-0.3501,-0.3528,-0.3534,-0.3539,0,0,0,0,0,0,-0.345,-0.3445,-0.3436,-0.3459,-0.3461,-0.3458,-0.3471,-0.346,-0.3467,-0.3464,-0.3452,-0.3452,-0.3473,-0.3472,-0.3457,-0.3496,-0.3476,-0.348,-0.3496,-0.3502,-0.3506,-0.3506,-0.3434,0,0,0,0,0,-0.3459,-0.347,-0.3464,-0.3486,-0.3487,-0.3479,-0.3484,-0.3476,-0.3478,-0.3479,-0.3477,-0.3479,-0.3489,-0.3495,-0.3503,-0.353,-0.3529,-0.3543,-0.3547,-0.3551,-0.3554,-0.3568,-0.3574,-0.3511,-0.3511,-0.3511,0,0,-0.3478,-0.3476,-0.3484,-0.3491,-0.3492,-0.3503,-0.348,-0.3493,-0.3502,-0.3481,-0.3499,-0.3498,-0.3499,-0.3522,-0.3532,-0.3523,-0.3572,-0.3554,-0.3558,-0.3559,-0.3572,-0.3578,-0.3583,-0.3513,-0.3513,-0.3512,0,0,-0.3518,-0.3518,-0.3535,-0.3537,-0.3538,-0.3532,-0.3536,-0.3534,-0.3533,-0.355,-0.3535,-0.3545,-0.3561,-0.3563,-0.3566,-0.3607,-0.3595,-0.361,-0.3634,-0.3648,-0.3653,-0.3658,-0.3672,-0.3678,-0.3613,-0.3613,-0.3613,0,-0.3541,-0.3558,-0.3546,-0.356,-0.3564,-0.3545,-0.3563,-0.3565,-0.3569,-0.3572,-0.3561,-0.3581,-0.3581,-0.3604,-0.3614,-0.3617,-0.3621,-0.361,-0.3653,-0.3658,-0.3662,-0.3675,-0.3681,-0.3615,-0.3614,-0.3614,-0.3614,0,-0.3587,-0.3598,-0.3612,-0.3616,-0.3622,-0.3638,-0.3628,-0.3635,-0.3627,-0.3623,-0.3641,-0.364,-0.3648,-0.3652,-0.3644,-0.3675,-0.3668,-0.3655,-0.3636,-0.367,-0.3682,-0.3688,-0.3617,-0.3616,-0.3616,-0.3616,0,0,-0.3645,-0.3642,-0.3648,-0.3649,-0.3649,-0.3658,-0.3673,-0.368,-0.3686,-0.3689,-0.3702,-0.3716,-0.3704,-0.3707,-0.3699,-0.3711,-0.3744,-0.3697,-0.3697,-0.3706,-0.3777,-0.3787,-0.3793,-0.3736,-0.3737,-0.3737,-0.3777,0,-0.3685,-0.371,-0.37,-0.3726,-0.3737,-0.3719,-0.3732,-0.3734,-0.373,-0.3739,-0.3735,-0.3745,-0.3728,-0.373,-0.3741,-0.3737,-0.3758,-0.3734,-0.3748,-0.3748,-0.3748,-0.38,-0.3811,-0.3848,-0.3782,-0.3783,-0.3783,0,-0.3734,-0.3739,-0.3767,-0.3764,-0.3768,-0.378,-0.3786,-0.3794,-0.3795,-0.3792,-0.3796,-0.3785,-0.38,-0.378,-0.38,-0.3784,-0.3789,-0.3788,-0.3789,-0.379,-0.3768,-0.3803,-0.386,-0.3866,-0.3791,-0.379,-0.379,0,-0.3775,-0.3788,-0.3806,-0.3808,-0.3806,-0.3815,-0.3814,-0.3814,-0.3819,-0.3824,-0.3827,-0.3834,-0.3838,-0.3843,-0.3835,-0.3821,-0.3856,-0.3835,-0.3854,-0.3855,-0.3863,-0.3863,-0.3922,-0.3865,-0.3865,-0.3865,-0.3865,0,-0.382,-0.3838,-0.3824,-0.3836,-0.3855,-0.3843,-0.3862,-0.386,-0.386,-0.387,-0.3855,-0.3866,-0.3854,-0.3863,-0.3856,-0.3874,-0.3876,-0.3874,-0.3872,-0.3875,-0.3876,-0.3879,-0.3876,-0.3867,-0.3866,-0.3866,-0.3866,0,-0.3869,-0.3861,-0.3879,-0.3875,-0.3875,-0.3889,-0.3886,-0.3896,-0.3891,-0.3905,-0.3907,-0.39,-0.391,-0.3901,-0.3911,-0.3907,-0.3931,-0.3925,-0.3931,-0.3929,-0.3949,-0.3947,-0.4012,-0.402,-0.3958,-0.3959,-0.3959,0,-0.3899,-0.3912,-0.3909,-0.3915,-0.3915,-0.3925,-0.393,-0.3918,-0.3924,-0.3926,-0.3936,-0.3945,-0.3951,-0.3968,-0.3964,-0.3971,-0.3966,-0.3988,-0.3967,-0.397,-0.3966,-0.3966,-0.3967,-0.3992,-0.3993,-0.3994,-0.3994,0,-0.3952,-0.3947,-0.3955,-0.3961,-0.3967,-0.3971,-0.3974,-0.398,-0.3968,-0.3975,-0.3985,-0.399,-0.4,-0.4009,-0.4014,-0.4014,-0.4003,-0.4001,-0.4006,-0.401,-0.4012,-0.4011,-0.3943,-0.3999,-0.3999,-0.3999,-0.3998,-0.3998,-0.3993,-0.4003,-0.4003,-0.4012,-0.4013,-0.4016,-0.4025,-0.4021,-0.4029,-0.4036,-0.4029,-0.4041,-0.4042,-0.4048,-0.4049,-0.4059,-0.405,-0.4057,-0.4059,-0.4061,-0.4063,-0.401,-0.406,-0.406,-0.406,-0.4059,-0.4059,0,-0.4046,-0.4045,-0.4053,-0.4057,-0.4064,-0.4052,-0.4054,-0.4061,-0.4072,-0.4073,-0.408,-0.4091,-0.41,-0.4096,-0.4103,-0.4111,-0.4106,-0.4114,-0.4113,-0.4114,-0.4071,-0.4066,-0.4118,-0.4118,-0.4118,-0.4118,-0.4118,-0.4118,-0.4074,-0.4092,-0.4087,-0.4105,-0.4104,-0.4115,-0.4118,-0.4121,-0.4122,-0.4135,-0.4142,-0.4139,-0.4138,-0.4146,-0.4153,-0.4152,-0.4155,-0.4165,-0.4162,-0.4122,-0.4117,-0.4111,-0.4107,-0.4166,-0.4166,-0.4203,-0.4204,-0.4204]},{"header":{"parameterUnit":"m.s-1","parameterCategory":1,"la1":30.2991,"la2":30.254,"lo1":-89.0895,"lo2":-89.0444,"dy":0.0017,"dx":0.0017,"nx":28,"ny":28,"refTime":"2024-06-15T09:00:00:Z","depth":0,"parameterNumber":3,"parameterNumberName":"V-component_of_WINDS"},"data":[0,0,0,0,0,0,0,0,0,0,0,0,0,0,0,0,0,0,0,0,0,0,0,0,0,0,0,0,0,0,0,0,0,0,0,0,0,0,0,0,0,0,0,0,0,0,0,0,0,0,0,0,0,0,0,0,0,0,-1.9,-1.9,0,-1.9028,-1.9029,-1.9029,-1.9013,-1.9012,-1.9011,-1.901,-1.9036,-1.9038,-1.9039,0,0,0,0,0,0,0,0,0,0,0,0,0,-1.893,-1.8931,-1.9,-1.9,-1.9001,-1.9028,-1.9029,-1.9029,-1.9013,-1.9012,-1.9011,-1.901,-1.9036,-1.9037,-1.9039,0,0,0,0,0,0,0,0,0,0,0,0,0,-1.8959,-1.8931,-1.9,-1.8996,-1.8996,-1.9028,-1.9029,-1.9029,-1.9013,-1.9012,-1.9011,-1.901,-1.9035,-1.9037,-1.9039,-1.9076,0,0,-1.9046,-1.9047,0,0,0,0,0,0,0,0,-1.8957,-1.8962,-1.8996,-1.8996,-1.8996,-1.9016,-1.9013,-1.9045,-1.9013,-1.9006,-1.901,-1.9009,-1.903,-1.9033,-1.904,-1.9077,-1.9078,-1.9046,-1.9047,-1.9048,-1.9049,0,0,0,0,0,0,0,-1.8955,-1.896,-1.9011,-1.8997,-1.8997,-1.8992,-1.8995,-1.9019,-1.9024,-1.9007,-1.9006,-1.901,-1.903,-1.9038,-1.9041,-1.9079,-1.9046,-1.9048,-1.9049,-1.905,-1.9147,-1.9148,0,0,0,0,0,0,-1.8954,-1.8959,-1.901,-1.9012,-1.8974,-1.8994,-1.8998,-1.9011,-1.9024,-1.9025,-1.9011,-1.9009,-1.9035,-1.9038,-1.9042,-1.9085,-1.9048,-1.905,-1.9051,-1.9146,-1.9147,-1.9149,0,0,0,0,0,0,-1.8953,-1.8959,-1.9009,-1.8985,-1.8991,-1.8997,-1.9012,-1.9012,-1.902,-1.9027,-1.9027,-1.9018,-1.9034,-1.9039,-1.9068,-1.9086,-1.9051,-1.9053,-1.9144,-1.9146,-1.9148,-1.9173,0,0,0,0,0,0,-1.8951,-1.8958,-1.8973,-1.8986,-1.8993,-1.9035,-1.9013,-1.9013,-1.9024,-1.9022,-1.9034,-1.9035,-1.9034,-1.9065,-1.907,-1.9088,-1.9055,-1.9142,-1.9145,-1.9147,-1.917,-1.9175,-1.918,0,0,0,0,0,-1.8948,-1.8978,-1.8974,-1.898,-1.9011,-1.9037,-1.904,-1.9039,-1.9026,-1.904,-1.9045,-1.9035,-1.9083,-1.9068,-1.9074,-1.9093,-1.9141,-1.9144,-1.9147,-1.9168,-1.9174,-1.918,0,0,0,0,0,0,-1.8966,-1.898,-1.8975,-1.901,-1.9022,-1.9034,-1.9051,-1.9046,-1.9061,-1.9058,-1.9055,-1.9058,-1.9088,-1.9094,-1.9076,-1.9129,-1.911,-1.9114,-1.9124,-1.913,-1.9135,-1.9132,-1.9056,0,0,0,0,0,-1.8974,-1.8995,-1.9005,-1.9035,-1.9042,-1.9046,-1.9057,-1.9055,-1.9067,-1.9072,-1.9078,-1.909,-1.9108,-1.9119,-1.9136,-1.9172,-1.9173,-1.9188,-1.9192,-1.9196,-1.9199,-1.9218,-1.9224,-1.9158,-1.9158,-1.9158,0,0,-1.8991,-1.9001,-1.9014,-1.9039,-1.9048,-1.9069,-1.905,-1.9073,-1.9087,-1.9075,-1.9103,-1.9108,-1.9121,-1.9153,-1.9168,-1.9158,-1.9218,-1.92,-1.9203,-1.9204,-1.9222,-1.9228,-1.9233,-1.916,-1.916,-1.916,0,0,-1.9031,-1.9042,-1.9068,-1.9078,-1.9093,-1.9095,-1.9102,-1.9115,-1.9118,-1.9146,-1.9137,-1.9155,-1.9186,-1.9195,-1.9204,-1.9249,-1.9241,-1.9255,-1.9279,-1.9297,-1.9302,-1.9307,-1.9322,-1.9328,-1.9258,-1.9259,-1.9259,0,-1.905,-1.9081,-1.9081,-1.9105,-1.9116,-1.9107,-1.9133,-1.9143,-1.9162,-1.9169,-1.9159,-1.9198,-1.9206,-1.924,-1.9252,-1.9259,-1.9266,-1.9253,-1.9302,-1.9306,-1.931,-1.9325,-1.9331,-1.926,-1.926,-1.926,-1.926,0,-1.9103,-1.9125,-1.9144,-1.9164,-1.9178,-1.9202,-1.9205,-1.9219,-1.9216,-1.922,-1.9248,-1.9258,-1.9276,-1.9285,-1.9282,-1.9319,-1.9312,-1.9302,-1.9283,-1.9318,-1.9332,-1.9338,-1.9262,-1.9262,-1.9261,-1.9261,0,0,-1.9154,-1.9175,-1.9182,-1.9191,-1.9208,-1.9224,-1.9248,-1.9268,-1.9279,-1.9293,-1.9312,-1.9339,-1.933,-1.934,-1.9338,-1.9355,-1.9389,-1.9342,-1.9342,-1.935,-1.943,-1.9437,-1.9443,-1.9385,-1.9386,-1.9387,-1.9429,0,-1.9195,-1.9238,-1.9239,-1.9278,-1.9298,-1.9291,-1.9312,-1.9324,-1.9328,-1.9345,-1.935,-1.9369,-1.9355,-1.9361,-1.9377,-1.9382,-1.9405,-1.9379,-1.9401,-1.9402,-1.9397,-1.9451,-1.9458,-1.9497,-1.9434,-1.9435,-1.9436,0,-1.9248,-1.9265,-1.9307,-1.9321,-1.9329,-1.9348,-1.9366,-1.9383,-1.9396,-1.9398,-1.941,-1.9406,-1.943,-1.9411,-1.9444,-1.9426,-1.9435,-1.9439,-1.9441,-1.9441,-1.942,-1.9452,-1.951,-1.9515,-1.9444,-1.9444,-1.9443,0,-1.928,-1.9314,-1.9343,-1.9351,-1.9368,-1.9382,-1.9389,-1.9402,-1.9413,-1.9429,-1.9436,-1.9454,-1.9464,-1.9477,-1.9478,-1.9465,-1.9511,-1.9492,-1.9512,-1.9512,-1.9521,-1.952,-1.9579,-1.9529,-1.9529,-1.9529,-1.9528,0,-1.9325,-1.9351,-1.9357,-1.9375,-1.9403,-1.9404,-1.9432,-1.9438,-1.945,-1.9468,-1.9463,-1.948,-1.948,-1.9498,-1.9499,-1.9525,-1.9529,-1.9531,-1.953,-1.9531,-1.953,-1.9536,-1.9533,-1.953,-1.953,-1.953,-1.9529,0,-1.9365,-1.9371,-1.9402,-1.9417,-1.9421,-1.9441,-1.9453,-1.9469,-1.9474,-1.9497,-1.9502,-1.9509,-1.9529,-1.9532,-1.9555,-1.9556,-1.9587,-1.9584,-1.9583,-1.9582,-1.9601,-1.9599,-1.9665,-1.9674,-1.9619,-1.9619,-1.962,0,-1.9393,-1.9412,-1.943,-1.9442,-1.9451,-1.9471,-1.9483,-1.9486,-1.9498,-1.9516,-1.953,-1.955,-1.9566,-1.9598,-1.9605,-1.9622,-1.9619,-1.9642,-1.9622,-1.9621,-1.9618,-1.9617,-1.9618,-1.9645,-1.9645,-1.9646,-1.9646,0,-1.9441,-1.9443,-1.9462,-1.9482,-1.9497,-1.9513,-1.9527,-1.9537,-1.9541,-1.9556,-1.9577,-1.959,-1.9614,-1.9634,-1.9652,-1.9658,-1.9653,-1.9653,-1.9658,-1.9658,-1.9656,-1.9656,-1.9592,-1.9651,-1.965,-1.965,-1.965,-1.965,-1.9475,-1.9492,-1.9507,-1.9528,-1.954,-1.9554,-1.957,-1.9577,-1.9595,-1.9616,-1.9616,-1.9639,-1.9653,-1.9676,-1.9685,-1.9702,-1.9695,-1.9703,-1.9704,-1.9706,-1.9708,-1.9654,-1.9705,-1.9705,-1.9705,-1.9705,-1.9705,0,-1.9522,-1.9532,-1.9552,-1.9573,-1.9589,-1.9584,-1.96,-1.9614,-1.9635,-1.9648,-1.9665,-1.9689,-1.9708,-1.9717,-1.9735,-1.9748,-1.9745,-1.9752,-1.9751,-1.9752,-1.9714,-1.9707,-1.9754,-1.9754,-1.9754,-1.9754,-1.9754,-1.9754,-1.9549,-1.9577,-1.9582,-1.9616,-1.9625,-1.9649,-1.9658,-1.9671,-1.9681,-1.9709,-1.9726,-1.9732,-1.9743,-1.9763,-1.978,-1.9782,-1.9788,-1.9796,-1.9797,-1.976,-1.9755,-1.975,-1.9744,-1.9798,-1.9798,-1.9834,-1.9834,-1.9835]}]]